Total_Precipitation_Accumulation
0.08 0.20 0.51 0.87 1.59 1.77 1.44 0.84 0.63 0.49 0.50 0.54 0.55 0.54 0.62 0.77 1.14 1.72 1.47 0.97 0.53 0.44 0.55 0.80 1.05 0.96 1.00 1.06 1.01 1.01 0.94 0.92 0.92 0.93 0.98 1.03 1.08 1.08 1.14 1.19 1.25 1.42 1.52 1.45 1.41 1.49 1.53 1.56 1.71
0.18 0.33 0.61 1.15 1.78 1.66 1.26 0.71 0.53 0.41 0.43 0.44 0.40 0.47 0.65 0.78 0.68 0.89 1.13 0.90 0.48 0.42 0.39 0.43 0.78 0.93 0.98 1.00 0.96 0.94 0.89 0.89 0.88 0.98 0.99 1.02 1.13 1.21 1.26 1.17 1.18 1.28 1.34 1.35 1.38 1.30 1.48 1.56 1.60
0.25 0.40 0.63 1.13 1.14 1.08 0.91 0.59 0.47 0.36 0.46 0.61 0.54 0.48 0.69 0.91 0.75 0.85 0.92 0.60 0.43 0.40 0.35 0.47 0.74 0.84 0.89 0.94 0.91 0.85 0.88 0.98 1.03 1.01 0.91 0.99 1.05 1.21 1.26 1.22 1.25 1.29 1.36 1.39 1.45 1.34 1.53 1.54 1.54
0.25 0.42 0.63 0.69 0.50 0.45 0.48 0.48 0.46 0.49 0.68 0.81 0.70 0.67 0.77 0.78 0.78 0.80 0.70 0.53 0.44 0.52 0.43 0.55 0.82 0.81 0.83 0.87 0.87 0.86 0.96 1.09 1.07 1.03 0.98 1.05 1.08 1.19 1.14 1.14 1.21 1.21 1.36 1.44 1.51 1.46 1.52 1.52 1.50
0.20 0.44 0.71 0.47 0.28 0.29 0.29 0.34 0.49 0.55 0.79 0.88 0.66 0.84 1.08 1.01 0.81 0.75 0.61 0.57 0.54 0.64 0.66 0.73 0.92 0.86 0.83 0.85 0.94 0.98 1.03 1.11 1.16 1.07 0.99 1.03 1.05 1.12 1.10 1.09 1.11 1.10 1.29 1.41 1.50 1.53 1.56 1.60 1.72
0.20 0.34 0.47 0.34 0.22 0.19 0.22 0.29 0.43 0.55 0.76 0.85 0.73 1.09 1.42 1.39 1.16 1.00 0.90 0.96 0.93 0.99 1.00 1.04 1.09 1.03 0.98 0.97 1.10 1.18 1.10 1.08 1.15 1.09 1.02 0.97 1.02 1.05 1.01 1.03 1.04 1.02 1.18 1.31 1.43 1.57 1.57 1.64 1.77
0.18 0.26 0.30 0.19 0.14 0.15 0.21 0.27 0.45 0.62 0.77 0.99 0.98 1.23 1.54 1.76 1.51 1.28 1.22 1.28 1.36 1.36 1.35 1.20 1.11 1.07 1.11 1.23 1.31 1.24 1.10 1.12 1.19 1.15 1.06 0.97 0.99 0.92 0.86 0.94 1.06 1.03 1.15 1.27 1.42 1.51 1.54 1.57 1.71
0.14 0.13 0.17 0.11 0.07 0.12 0.18 0.26 0.40 0.60 0.85 0.99 1.00 1.16 1.38 1.49 1.42 1.47 1.56 1.66 1.84 1.74 1.59 1.34 1.16 1.14 1.03 1.08 1.21 1.19 1.15 1.23 1.25 1.20 1.16 1.15 1.09 1.01 1.04 1.05 1.18 1.14 1.21 1.24 1.34 1.45 1.49 1.52 1.66
0.08 0.08 0.10 0.08 0.05 0.09 0.17 0.33 0.46 0.51 0.68 1.01 1.23 1.09 0.99 1.13 1.47 1.74 2.13 2.20 2.30 2.13 1.72 1.36 1.27 1.33 1.23 1.11 1.08 1.39 1.43 1.43 1.42 1.45 1.43 1.57 1.75 1.48 1.44 1.23 1.42 1.44 1.50 1.51 1.59 1.68 1.74 1.89 1.83
0.04 0.07 0.07 0.04 0.04 0.06 0.17 0.40 0.55 0.67 1.01 1.35 1.52 1.33 1.12 1.14 1.63 2.00 2.26 2.44 2.12 2.14 2.08 1.74 1.49 1.40 1.41 1.30 1.39 1.91 1.92 1.86 1.96 1.99 1.91 2.26 2.22 1.97 1.42 1.42 1.83 1.85 1.98 2.09 2.32 2.48 2.21 2.13 2.09
0.03 0.03 0.03 0.04 0.04 0.07 0.20 0.23 0.32 0.60 1.22 1.62 1.82 1.46 1.22 1.34 1.74 2.26 2.48 2.40 2.11 2.09 1.99 2.04 1.87 1.69 1.67 1.82 1.76 1.98 2.24 2.26 2.26 2.19 2.24 2.48 2.11 1.79 1.61 1.84 2.26 2.30 2.38 2.50 2.71 2.84 2.28 2.39 3.00
0.02 0.02 0.02 0.02 0.03 0.05 0.12 0.21 0.36 0.67 1.16 1.42 1.31 1.18 1.20 1.42 1.69 2.30 2.70 2.56 2.42 2.35 2.23 2.48 2.41 2.30 2.30 2.14 2.12 1.98 1.97 2.00 2.06 2.17 2.10 2.25 2.29 2.18 2.18 2.30 2.38 2.54 2.73 3.03 2.85 2.99 2.95 3.13 3.11
0.02 0.02 0.03 0.03 0.04 0.06 0.10 0.22 0.34 0.58 0.85 0.91 0.82 0.99 1.45 1.56 1.84 2.48 3.05 3.03 2.94 2.80 2.87 3.00 3.04 3.15 2.97 2.70 2.48 2.06 2.07 2.00 1.93 1.98 1.95 2.15 2.43 2.49 2.63 2.42 2.51 2.30 2.43 2.80 3.12 3.13 3.34 3.58 3.51
0.02 0.03 0.04 0.05 0.07 0.08 0.13 0.24 0.40 0.77 0.78 0.71 0.83 1.15 1.53 1.94 2.09 2.54 3.26 3.51 3.43 3.41 3.63 3.61 3.62 3.64 3.47 3.05 2.78 2.47 2.16 2.20 2.00 1.96 2.02 2.47 2.71 2.70 2.79 2.65 2.63 2.36 2.39 2.71 3.08 3.14 3.47 3.55 3.60
0.04 0.06 0.12 0.13 0.10 0.12 0.19 0.56 0.71 0.84 0.80 0.79 1.02 1.26 1.74 2.34 2.57 2.83 3.35 3.72 3.86 4.10 4.30 4.50 4.37 4.06 4.12 3.74 3.00 2.48 2.20 2.06 2.15 2.27 2.32 2.57 2.71 2.92 3.08 3.00 2.64 2.42 2.54 2.77 2.80 2.95 3.45 3.35 3.31
0.07 0.11 0.29 0.25 0.12 0.14 0.28 0.79 0.88 0.88 0.90 0.98 1.21 1.54 1.90 2.37 2.48 2.73 3.20 3.76 4.27 4.66 5.09 5.30 4.89 4.77 4.77 4.41 3.80 3.22 2.89 2.71 2.71 2.68 2.48 2.31 2.51 2.63 2.87 2.65 2.28 2.36 2.59 2.78 2.79 2.81 3.21 3.38 3.41
0.11 0.15 0.26 0.25 0.17 0.16 0.28 0.69 0.71 0.61 0.95 1.35 1.59 1.75 1.91 2.07 2.23 2.41 2.80 3.53 4.35 4.94 5.66 6.07 6.26 5.76 5.35 4.75 4.29 3.76 3.45 3.25 2.98 2.68 2.39 2.09 1.90 1.83 2.11 2.10 2.05 2.06 2.33 2.38 2.10 2.36 2.71 2.96 3.09
0.09 0.15 0.21 0.26 0.21 0.21 0.35 0.61 0.72 0.63 0.93 1.30 1.35 1.62 1.72 1.75 1.95 2.33 2.86 3.41 4.27 5.04 5.75 6.17 6.40 5.86 5.13 4.80 4.75 4.40 3.82 3.38 3.00 2.60 2.34 1.96 1.80 1.61 1.85 1.89 1.74 1.71 1.89 1.97 2.11 2.44 2.53 2.46 2.52
0.07 0.12 0.20 0.22 0.21 0.30 0.48 0.73 0.86 0.83 0.89 1.04 1.15 1.35 1.39 1.43 1.70 2.17 2.81 3.48 4.26 5.38 6.06 6.20 5.92 5.20 4.68 4.27 4.01 3.72 3.45 3.17 2.69 2.27 2.01 1.88 1.79 1.73 1.92 1.77 1.80 1.69 1.72 1.76 1.84 2.08 2.17 1.96 2.13
0.06 0.12 0.20 0.20 0.17 0.20 0.44 0.80 0.92 0.94 1.00 1.00 1.07 1.16 1.09 1.24 1.58 2.17 2.94 3.74 4.40 4.96 5.33 5.41 5.03 4.26 3.77 3.50 3.43 3.15 2.94 2.59 2.39 2.16 2.10 1.82 1.74 1.73 1.62 1.79 1.61 1.54 1.73 1.70 1.78 2.00 2.01 1.79 1.93
0.09 0.11 0.17 0.21 0.18 0.22 0.44 0.96 1.16 1.08 1.05 1.03 0.93 0.92 1.03 1.25 1.78 2.53 3.33 4.07 4.42 4.45 4.22 3.94 3.75 3.35 3.22 3.16 2.98 2.76 2.70 2.40 2.24 2.05 1.95 1.67 1.50 1.47 1.50 1.49 1.40 1.49 1.42 1.58 1.74 1.85 2.02 2.00 1.81
0.10 0.08 0.07 0.09 0.16 0.39 0.54 1.07 1.24 1.23 1.15 1.01 0.98 0.98 1.10 1.38 1.92 2.62 3.15 3.38 3.54 3.47 3.18 2.99 2.90 2.82 2.76 2.67 2.54 2.25 2.12 2.07 1.93 1.84 1.85 1.73 1.53 1.45 1.43 1.37 1.46 1.48 1.36 1.61 1.41 1.56 1.86 2.00 1.81
0.06 0.05 0.05 0.10 0.22 0.42 0.58 0.93 1.29 1.26 1.33 0.91 0.76 0.84 0.95 1.18 1.49 1.69 1.89 2.05 2.18 2.22 2.37 2.45 2.57 2.68 2.59 2.51 2.48 2.37 2.11 2.06 2.03 2.02 2.10 1.97 1.77 1.55 1.32 1.36 1.55 1.59 1.46 1.49 1.50 1.68 1.70 1.74 1.76
0.05 0.07 0.14 0.24 0.42 0.79 0.80 0.96 1.30 1.30 1.18 0.78 0.55 0.57 0.76 0.86 0.94 1.03 1.13 1.25 1.48 1.53 1.73 1.94 2.07 2.23 2.39 2.41 2.24 2.15 2.09 2.12 2.16 2.10 1.93 1.74 1.61 1.51 1.40 1.47 1.70 1.69 1.64 1.59 1.55 1.57 1.62 1.78 1.89
0.06 0.11 0.35 0.70 1.06 1.12 0.69 0.79 1.22 1.16 0.84 0.54 0.44 0.42 0.44 0.59 0.76 0.90 1.02 1.12 1.32 1.27 1.34 1.57 1.65 1.67 1.82 1.86 1.82 1.88 2.00 2.05 1.93 1.82 1.74 1.58 1.34 1.32 1.40 1.45 1.65 1.64 1.64 1.56 1.70 1.72 1.66 1.77 1.84
0.07 0.08 0.22 0.42 0.54 0.72 0.76 1.25 1.47 0.87 0.59 0.44 0.39 0.36 0.36 0.49 0.67 0.77 0.77 0.86 0.98 0.95 1.07 1.23 1.32 1.38 1.44 1.56 1.66 1.62 1.76 1.78 1.70 1.75 1.63 1.49 1.28 1.18 1.20 1.30 1.37 1.43 1.48 1.44 1.78 1.68 1.70 1.78 1.72
0.08 0.06 0.09 0.14 0.23 0.55 0.95 1.31 1.29 0.78 0.60 0.42 0.37 0.40 0.43 0.41 0.54 0.61 0.55 0.56 0.68 0.79 0.92 1.04 1.11 1.23 1.26 1.41 1.48 1.44 1.54 1.61 1.66 1.66 1.55 1.38 1.38 1.24 1.27 1.32 1.49 1.59 1.61 1.63 1.84 1.78 1.75 1.88 1.71
0.08 0.09 0.10 0.14 0.24 0.48 0.85 1.35 1.61 1.18 0.67 0.49 0.46 0.47 0.51 0.43 0.47 0.50 0.50 0.46 0.52 0.68 0.93 1.01 1.03 1.15 1.19 1.28 1.29 1.17 1.33 1.45 1.57 1.52 1.44 1.41 1.43 1.37 1.45 1.49 1.60 1.67 1.62 1.62 1.77 1.78 1.87 1.94 1.83
0.11 0.10 0.12 0.15 0.17 0.28 0.66 1.00 0.90 0.89 0.65 0.63 0.62 0.56 0.54 0.49 0.51 0.49 0.49 0.48 0.45 0.56 0.77 0.84 0.97 1.09 1.15 1.21 1.31 1.36 1.36 1.30 1.41 1.42 1.40 1.43 1.47 1.41 1.46 1.56 1.65 1.64 1.68 1.78 1.88 1.75 1.83 1.94 2.11
0.13 0.13 0.14 0.16 0.15 0.16 0.32 0.56 0.56 0.72 0.68 0.67 0.73 0.67 0.62 0.46 0.42 0.44 0.49 0.53 0.48 0.49 0.60 0.74 0.91 1.06 1.11 1.18 1.30 1.38 1.51 1.47 1.42 1.40 1.44 1.47 1.56 1.61 1.60 1.68 1.71 1.57 1.59 1.78 1.86 1.85 1.89 1.94 2.00